Location: Kalberh�ni
(46.4610°N, 7.2453°E)
Time: 07:38:23
(UTC+00:00)

deb Kosmos-2227 - Pass Details

Date: 18 August 2022
Orbit: 774 x 865 km, 70.9° (Epoch: 26 September)

Event Time Altitude Azimuth Distance (km) Brightness Sun altitude
Rises 20:31:21 0° 341° (NNW) 3,338 ? -17.8°
Reaches altitude 10° 20:34:47 10° 3° (N) 2,423 ? -18.2°
Maximum altitude 20:38:08 16° 40° (NE) 2,043 ? -18.7°
Enters shadow 20:41:15 11° 75° (ENE) 2,395 ? -19.0°
